^^
Saratoga-Weather Station Historical Data
Daily Summary for February 21, 2020 Units:  Metric    English   Both
Daily Weekly Monthly Yearly Custom
  High: Low: Average:
Temperature: 26.9 °C 9.9 °C 17.4 °C
Dew Point: 11 °C 7.1 °C 8.9 °C
Humidity: 83% 33% 60%
Wind Speed: 8km/h 0km/h 0.8km/h
Wind Gust: 12.9km/h - -
Wind- - SSE
Pressure: 1014.9 hPa 1012.2 hPa -
Precipitation: 0.0 mm    
Historical Graphs
 
 
Tabular Data for February 21, 2020
Time Temperature Dew Point Pressure Wind Wind Speed Wind Gust Humidity Rainfall Rate (Hourly) solar
00:02 14.8 °C 7.6 °C 1014.2 hPa Calm     62% 0.0 mm 0 W/m2
00:07 14.6 °C 7.4 °C 1014.2 hPa Calm     62% 0.0 mm 0 W/m2
00:12 14.4 °C 7.4 °C 1014.2 hPa Calm     63% 0.0 mm 0 W/m2
00:17 14.3 °C 7.4 °C 1014.2 hPa Calm     63% 0.0 mm 0 W/m2
00:22 14.2 °C 7.5 °C 1014.2 hPa Calm     64% 0.0 mm 0 W/m2
00:27 14.1 °C 7.6 °C 1014.6 hPa Calm     65% 0.0 mm 0 W/m2
00:32 14 °C 7.5 °C 1014.6 hPa Calm     65% 0.0 mm 0 W/m2
00:37 13.8 °C 7.6 °C 1014.6 hPa Calm     66% 0.0 mm 0 W/m2
00:42 13.8 °C 7.6 °C 1014.6 hPa Calm     66% 0.0 mm 0 W/m2
00:47 13.7 °C 7.5 °C 1014.6 hPa Calm     66% 0.0 mm 0 W/m2
00:52 13.6 °C 7.6 °C 1014.6 hPa Calm     67% 0.0 mm 0 W/m2
00:57 13.6 °C 7.6 °C 1014.6 hPa Calm     67% 0.0 mm 0 W/m2
01:02 13.4 °C 7.6 °C 1014.6 hPa Calm     68% 0.0 mm 0 W/m2
01:07 13.3 °C 7.5 °C 1014.6 hPa Calm     68% 0.0 mm 0 W/m2
01:12 13.2 °C 7.4 °C 1014.6 hPa Calm     68% 0.0 mm 0 W/m2
01:17 13.1 °C 7.5 °C 1014.6 hPa Calm     69% 0.0 mm 0 W/m2
01:22 13.1 °C 7.5 °C 1014.2 hPa Calm     69% 0.0 mm 0 W/m2
01:27 13.1 °C 7.5 °C 1014.2 hPa Calm     69% 0.0 mm 0 W/m2
01:32 13.1 °C 7.8 °C 1014.2 hPa Calm     70% 0.0 mm 0 W/m2
01:37 12.9 °C 7.6 °C 1014.2 hPa Calm     70% 0.0 mm 0 W/m2
01:42 12.8 °C 7.7 °C 1014.2 hPa Calm     71% 0.0 mm 0 W/m2
01:47 12.8 °C 7.7 °C 1014.2 hPa Calm     71% 0.0 mm 0 W/m2
01:52 12.7 °C 7.6 °C 1014.2 hPa Calm     71% 0.0 mm 0 W/m2
01:57 12.6 °C 7.7 °C 1014.2 hPa Calm   1.6 km/h 72% 0.0 mm 0 W/m2
02:02 12.6 °C 7.7 °C 1014.2 hPa Calm     72% 0.0 mm 0 W/m2
02:07 12.5 °C 7.6 °C 1014.2 hPa Calm     72% 0.0 mm 0 W/m2
02:12 12.4 °C 7.5 °C 1014.2 hPa Calm     72% 0.0 mm 0 W/m2
02:17 12.4 °C 7.5 °C 1014.6 hPa Calm     72% 0.0 mm 0 W/m2
02:22 12.3 °C 7.6 °C 1014.6 hPa Calm     73% 0.0 mm 0 W/m2
02:27 12.2 °C 7.5 °C 1014.2 hPa Calm   1.6 km/h 73% 0.0 mm 0 W/m2
02:32 12.2 °C 7.5 °C 1014.6 hPa South 1.4 km/h 1.6 km/h 73% 0.0 mm 0 W/m2
02:37 12.2 °C 7.5 °C 1014.6 hPa Calm     73% 0.0 mm 0 W/m2
02:42 12.2 °C 7.5 °C 1014.6 hPa Calm     73% 0.0 mm 0 W/m2
02:47 12.2 °C 7.7 °C 1014.6 hPa Calm     74% 0.0 mm 0 W/m2
02:52 12.2 °C 7.7 °C 1014.2 hPa Calm   1.6 km/h 74% 0.0 mm 0 W/m2
02:57 12.2 °C 7.7 °C 1014.6 hPa Calm     74% 0.0 mm 0 W/m2
03:02 12.2 °C 7.5 °C 1014.2 hPa Calm     73% 0.0 mm 0 W/m2
03:07 12.3 °C 7.6 °C 1014.2 hPa Calm     73% 0.0 mm 0 W/m2
03:12 12.2 °C 7.5 °C 1014.2 hPa Calm     73% 0.0 mm 0 W/m2
03:17 12.2 °C 7.5 °C 1014.2 hPa Calm     73% 0.0 mm 0 W/m2
03:22 12.1 °C 7.6 °C 1014.2 hPa Calm     74% 0.0 mm 0 W/m2
03:27 12 °C 7.5 °C 1014.2 hPa Calm   1.6 km/h 74% 0.0 mm 0 W/m2
03:32 11.9 °C 7.4 °C 1014.2 hPa Calm     74% 0.0 mm 0 W/m2
03:37 11.9 °C 7.4 °C 1014.2 hPa Calm   1.6 km/h 74% 0.0 mm 0 W/m2
03:42 11.9 °C 7.6 °C 1014.2 hPa Calm   1.6 km/h 75% 0.0 mm 0 W/m2
03:47 11.9 °C 7.6 °C 1013.9 hPa Calm   1.6 km/h 75% 0.0 mm 0 W/m2
03:52 11.8 °C 7.3 °C 1013.9 hPa Calm     74% 0.0 mm 0 W/m2
03:57 11.8 °C 7.5 °C 1013.9 hPa Calm   1.6 km/h 75% 0.0 mm 0 W/m2
04:02 11.7 °C 7.4 °C 1013.9 hPa Calm     75% 0.0 mm 0 W/m2
04:07 11.6 °C 7.3 °C 1013.9 hPa Calm     75% 0.0 mm 0 W/m2
04:12 11.6 °C 7.5 °C 1013.9 hPa Calm     76% 0.0 mm 0 W/m2
04:17 11.5 °C 7.4 °C 1013.9 hPa Calm   1.6 km/h 76% 0.0 mm 0 W/m2
04:23 11.4 °C 7.3 °C 1013.9 hPa Calm     76% 0.0 mm 0 W/m2
04:28 11.4 °C 7.3 °C 1013.9 hPa Calm     76% 0.0 mm 0 W/m2
04:33 11.3 °C 7.4 °C 1014.2 hPa Calm     77% 0.0 mm 0 W/m2
04:38 11.3 °C 7.4 °C 1014.2 hPa Calm   1.6 km/h 77% 0.0 mm 0 W/m2
04:43 11.2 °C 7.3 °C 1013.9 hPa Calm     77% 0.0 mm 0 W/m2
04:48 11.2 °C 7.3 °C 1013.9 hPa Calm   1.6 km/h 77% 0.0 mm 0 W/m2
04:53 11.1 °C 7.4 °C 1013.9 hPa Calm   3.2 km/h 78% 0.0 mm 0 W/m2
04:58 11.3 °C 7.6 °C 1014.2 hPa South 1.4 km/h 3.2 km/h 78% 0.0 mm 0 W/m2
05:03 11.3 °C 7.4 °C 1013.9 hPa Calm   1.6 km/h 77% 0.0 mm 0 W/m2
05:08 11.3 °C 7.6 °C 1013.9 hPa Calm   3.2 km/h 78% 0.0 mm 0 W/m2
05:13 11.3 °C 7.4 °C 1013.9 hPa Calm     77% 0.0 mm 0 W/m2
05:18 11.3 °C 7.4 °C 1013.9 hPa Calm   1.6 km/h 77% 0.0 mm 0 W/m2
05:23 11.3 °C 7.4 °C 1013.9 hPa Calm   1.6 km/h 77% 0.0 mm 0 W/m2
05:28 11.3 °C 7.4 °C 1013.9 hPa Calm     77% 0.0 mm 0 W/m2
05:33 11.3 °C 7.6 °C 1013.9 hPa Calm     78% 0.0 mm 0 W/m2
05:38 11.2 °C 7.5 °C 1014.2 hPa Calm     78% 0.0 mm 0 W/m2
05:43 11.1 °C 7.4 °C 1014.2 hPa South 1.4 km/h 3.2 km/h 78% 0.0 mm 0 W/m2
05:48 11.1 °C 7.4 °C 1014.2 hPa Calm     78% 0.0 mm 0 W/m2
05:53 11.1 °C 7.4 °C 1014.2 hPa Calm     78% 0.0 mm 0 W/m2
05:58 10.9 °C 7.4 °C 1014.2 hPa Calm     79% 0.0 mm 0 W/m2
06:03 10.9 °C 7.4 °C 1014.2 hPa Calm     79% 0.0 mm 0 W/m2
06:08 10.8 °C 7.3 °C 1014.2 hPa Calm     79% 0.0 mm 0 W/m2
06:13 10.7 °C 7.2 °C 1014.2 hPa Calm     79% 0.0 mm 0 W/m2
06:18 10.6 °C 7.1 °C 1014.2 hPa Calm     79% 0.0 mm 0 W/m2
06:23 10.6 °C 7.3 °C 1014.2 hPa Calm     80% 0.0 mm 0 W/m2
06:28 10.5 °C 7.2 °C 1014.2 hPa Calm     80% 0.0 mm 0 W/m2
06:33 10.4 °C 7.1 °C 1014.2 hPa Calm   1.6 km/h 80% 0.0 mm 0 W/m2
06:38 10.3 °C 7.2 °C 1014.2 hPa Calm   1.6 km/h 81% 0.0 mm 0 W/m2
06:43 10.3 °C 7.2 °C 1014.2 hPa Calm     81% 0.0 mm 0 W/m2
06:48 10.2 °C 7.1 °C 1014.2 hPa Calm   1.6 km/h 81% 0.0 mm 0 W/m2
06:53 10.2 °C 7.1 °C 1014.2 hPa Calm   1.6 km/h 81% 0.0 mm 0 W/m2
06:58 10.2 °C 7.1 °C 1014.2 hPa South 1.4 km/h 1.6 km/h 81% 0.0 mm 0 W/m2
07:03 10.2 °C 7.1 °C 1014.2 hPa Calm     81% 0.0 mm 0 W/m2
07:08 10.2 °C 7.3 °C 1014.2 hPa South 1.4 km/h 1.6 km/h 82% 0.0 mm 0 W/m2
07:13 10.1 °C 7.2 °C 1014.2 hPa South 1.4 km/h 3.2 km/h 82% 0.0 mm 0 W/m2
07:18 10.1 °C 7.2 °C 1014.2 hPa Calm     82% 0.0 mm 0 W/m2
07:23 10.1 °C 7.2 °C 1014.6 hPa Calm     82% 0.0 mm 0 W/m2
07:28 10.1 °C 7.2 °C 1014.6 hPa Calm     82% 0.0 mm 7 W/m2
07:33 10 °C 7.1 °C 1014.6 hPa Calm     82% 0.0 mm 9 W/m2
07:38 10 °C 7.1 °C 1014.6 hPa Calm     82% 0.0 mm 11 W/m2
07:43 10 °C 7.1 °C 1014.6 hPa Calm     82% 0.0 mm 12 W/m2
07:48 9.9 °C 7.1 °C 1014.6 hPa Calm     83% 0.0 mm 14 W/m2
07:53 9.9 °C 7.1 °C 1014.6 hPa Calm     83% 0.0 mm 14 W/m2
07:58 9.9 °C 7.1 °C 1014.6 hPa Calm     83% 0.0 mm 16 W/m2
08:03 9.9 °C 7.1 °C 1014.6 hPa Calm     83% 0.0 mm 18 W/m2
08:08 10 °C 7.2 °C 1014.6 hPa Calm     83% 0.0 mm 19 W/m2
08:13 10.1 °C 7.3 °C 1014.6 hPa Calm     83% 0.0 mm 21 W/m2
08:18 10.1 °C 7.3 °C 1014.9 hPa Calm     83% 0.0 mm 21 W/m2
08:23 10.2 °C 7.4 °C 1014.9 hPa Calm     83% 0.0 mm 23 W/m2
08:28 10.3 °C 7.5 °C 1014.9 hPa Calm     83% 0.0 mm 30 W/m2
08:33 10.4 °C 7.6 °C 1014.9 hPa Calm     83% 0.0 mm 44 W/m2
08:38 10.5 °C 7.7 °C 1014.9 hPa Calm     83% 0.0 mm 26 W/m2
08:43 10.7 °C 7.9 °C 1014.9 hPa Calm     83% 0.0 mm 26 W/m2
08:48 10.8 °C 7.9 °C 1014.9 hPa Calm     82% 0.0 mm 26 W/m2
08:53 11 °C 8 °C 1014.9 hPa Calm     82% 0.0 mm 30 W/m2
08:58 11.2 °C 8.2 °C 1014.9 hPa Calm     82% 0.0 mm 28 W/m2
09:03 11.4 °C 8.4 °C 1014.9 hPa Calm     82% 0.0 mm 30 W/m2
09:08 11.8 °C 8.8 °C 1014.9 hPa Calm     82% 0.0 mm 156 W/m2
09:13 12.1 °C 8.9 °C 1014.9 hPa Calm     81% 0.0 mm 47 W/m2
09:18 12.6 °C 9.1 °C 1014.9 hPa Calm     79% 0.0 mm 33 W/m2
09:23 13.2 °C 8.7 °C 1014.9 hPa Calm   3.2 km/h 74% 0.0 mm 35 W/m2
09:28 13.8 °C 8.8 °C 1014.9 hPa East 1.4 km/h 1.6 km/h 72% 0.0 mm 35 W/m2
09:33 14.3 °C 8.7 °C 1014.9 hPa East 3.2 km/h 3.2 km/h 69% 0.0 mm 35 W/m2
09:38 14.8 °C 8.7 °C 1014.9 hPa Calm   3.2 km/h 67% 0.0 mm 35 W/m2
09:43 15.3 °C 8.8 °C 1014.9 hPa Calm   4.8 km/h 65% 0.0 mm 37 W/m2
09:48 15.6 °C 9 °C 1014.9 hPa Calm     65% 0.0 mm 37 W/m2
09:53 15.9 °C 8.9 °C 1014.9 hPa East 1.4 km/h 6.4 km/h 63% 0.0 mm 37 W/m2
09:58 16.1 °C 9.1 °C 1014.9 hPa ENE 3.2 km/h 3.2 km/h 63% 0.0 mm 37 W/m2
10:03 16.2 °C 8.9 °C 1014.9 hPa East 4.7 km/h 6.4 km/h 62% 0.0 mm 39 W/m2
10:08 16.3 °C 8.8 °C 1014.9 hPa East 3.2 km/h 3.2 km/h 61% 0.0 mm 39 W/m2
10:13 16.5 °C 9 °C 1014.9 hPa ENE 6.4 km/h 6.4 km/h 61% 0.0 mm 39 W/m2
10:18 16.6 °C 8.8 °C 1014.9 hPa East 1.4 km/h 4.8 km/h 60% 0.0 mm 40 W/m2
10:23 16.9 °C 9.1 °C 1014.9 hPa ESE 1.4 km/h 1.6 km/h 60% 0.0 mm 40 W/m2
10:28 17.2 °C 9.1 °C 1014.9 hPa ENE 1.4 km/h 4.8 km/h 59% 0.0 mm 42 W/m2
10:33 17.4 °C 9.1 °C 1014.9 hPa ENE 3.2 km/h 4.8 km/h 58% 0.0 mm 42 W/m2
10:38 17.4 °C 9.1 °C 1014.9 hPa NE 1.4 km/h 3.2 km/h 58% 0.0 mm 44 W/m2
10:43 17.5 °C 9.1 °C 1014.9 hPa East 1.4 km/h 1.6 km/h 58% 0.0 mm 46 W/m2
10:48 17.7 °C 9.1 °C 1014.9 hPa Calm   3.2 km/h 57% 0.0 mm 46 W/m2
10:53 17.9 °C 9.5 °C 1014.9 hPa Calm   1.6 km/h 58% 0.0 mm 46 W/m2
10:58 18.2 °C 9.3 °C 1014.9 hPa Calm   4.8 km/h 56% 0.0 mm 46 W/m2
11:03 18.4 °C 9.2 °C 1014.9 hPa ESE 3.2 km/h 3.2 km/h 55% 0.0 mm 47 W/m2
11:08 18.4 °C 8.9 °C 1014.9 hPa ESE 1.4 km/h 4.8 km/h 54% 0.0 mm 47 W/m2
11:13 18.7 °C 9.2 °C 1014.9 hPa ESE 3.2 km/h 3.2 km/h 54% 0.0 mm 49 W/m2
11:18 18.9 °C 9.4 °C 1014.9 hPa ENE 1.4 km/h 6.4 km/h 54% 0.0 mm 51 W/m2
11:23 19.2 °C 9.7 °C 1014.9 hPa ESE 3.2 km/h 4.8 km/h 54% 0.0 mm 53 W/m2
11:28 19.6 °C 9.8 °C 1014.6 hPa East 4.7 km/h 6.4 km/h 53% 0.0 mm 54 W/m2
11:33 19.7 °C 9.6 °C 1014.6 hPa Calm   3.2 km/h 52% 0.0 mm 56 W/m2
11:38 20 °C 9.6 °C 1014.6 hPa East 3.2 km/h 4.8 km/h 51% 0.0 mm 250 W/m2
11:43 20.3 °C 9.8 °C 1014.6 hPa Calm   3.2 km/h 51% 0.0 mm 547 W/m2
11:48 20.5 °C 9.7 °C 1014.6 hPa NNE 1.4 km/h 4.8 km/h 50% 0.0 mm 561 W/m2
11:53 20.8 °C 10 °C 1014.6 hPa SE 1.4 km/h 3.2 km/h 50% 0.0 mm 568 W/m2
11:58 21.2 °C 9.8 °C 1014.6 hPa ENE 1.4 km/h 4.8 km/h 48% 0.0 mm 577 W/m2
12:03 21.4 °C 9.9 °C 1014.6 hPa ENE 3.2 km/h 6.4 km/h 48% 0.0 mm 582 W/m2
12:08 21.7 °C 10.2 °C 1014.6 hPa ENE 3.2 km/h 3.2 km/h 48% 0.0 mm 591 W/m2
12:13 21.7 °C 9.9 °C 1014.2 hPa ENE 1.4 km/h 4.8 km/h 47% 0.0 mm 599 W/m2
12:18 21.8 °C 10.3 °C 1014.2 hPa Calm   3.2 km/h 48% 0.0 mm 606 W/m2
12:23 22.1 °C 9.9 °C 1014.2 hPa SE 1.4 km/h 3.2 km/h 46% 0.0 mm 613 W/m2
12:28 22.5 °C 10.3 °C 1014.2 hPa East 1.4 km/h 6.4 km/h 46% 0.0 mm 617 W/m2
12:33 22.8 °C 10.2 °C 1014.2 hPa Calm   1.6 km/h 45% 0.0 mm 622 W/m2
12:38 23.1 °C 10.5 °C 1014.2 hPa ENE 1.4 km/h 6.4 km/h 45% 0.0 mm 626 W/m2
12:43 23.4 °C 10.5 °C 1014.2 hPa ENE 1.4 km/h 6.4 km/h 44% 0.0 mm 633 W/m2
12:48 23.7 °C 10.4 °C 1014.2 hPa ENE 4.7 km/h 6.4 km/h 43% 0.0 mm 636 W/m2
12:53 23.7 °C 10 °C 1014.2 hPa WNW 1.4 km/h 3.2 km/h 42% 0.0 mm 642 W/m2
12:58 23.8 °C 10.5 °C 1014.2 hPa ESE 6.4 km/h 6.4 km/h 43% 0.0 mm 643 W/m2
13:03 23.9 °C 10.6 °C 1014.2 hPa Calm   3.2 km/h 43% 0.0 mm 647 W/m2
13:08 24.2 °C 10.5 °C 1014.2 hPa Calm   3.2 km/h 42% 0.0 mm 645 W/m2
13:13 24.2 °C 10.1 °C 1014.2 hPa NNE 6.4 km/h 8 km/h 41% 0.0 mm 645 W/m2
13:18 24.1 °C 10 °C 1014.2 hPa Calm   4.8 km/h 41% 0.0 mm 645 W/m2
13:23 24.1 °C 10 °C 1014.2 hPa North 8 km/h 8 km/h 41% 0.0 mm 642 W/m2
13:28 24.2 °C 10.1 °C 1013.9 hPa Calm   1.6 km/h 41% 0.0 mm 649 W/m2
13:33 24.4 °C 10.3 °C 1013.9 hPa Calm   1.6 km/h 41% 0.0 mm 656 W/m2
13:38 24.7 °C 10.6 °C 1013.9 hPa NE 1.4 km/h 4.8 km/h 41% 0.0 mm 661 W/m2
13:44 24.7 °C 10.6 °C 1013.9 hPa SSE 1.4 km/h 4.8 km/h 41% 0.0 mm 654 W/m2
13:49 24.7 °C 10.2 °C 1013.9 hPa Calm   1.6 km/h 40% 0.0 mm 654 W/m2
13:54 24.9 °C 10.4 °C 1013.5 hPa SE 3.2 km/h 4.8 km/h 40% 0.0 mm 654 W/m2
13:59 24.9 °C 10.7 °C 1013.5 hPa ESE 1.4 km/h 4.8 km/h 41% 0.0 mm 649 W/m2
14:04 24.8 °C 10.3 °C 1013.9 hPa East 3.2 km/h 12.9 km/h 40% 0.0 mm 645 W/m2
14:09 24.8 °C 10.3 °C 1013.5 hPa Calm   4.8 km/h 40% 0.0 mm 642 W/m2
14:14 24.8 °C 10.3 °C 1013.5 hPa East 3.2 km/h 12.9 km/h 40% 0.0 mm 640 W/m2
14:19 24.9 °C 10.4 °C 1013.5 hPa ESE 4.7 km/h 6.4 km/h 40% 0.0 mm 640 W/m2
14:24 24.9 °C 10.4 °C 1013.5 hPa WSW 3.2 km/h 4.8 km/h 40% 0.0 mm 635 W/m2
14:29 24.8 °C 10.7 °C 1013.5 hPa Calm   6.4 km/h 41% 0.0 mm 635 W/m2
14:34 24.9 °C 10.7 °C 1013.5 hPa SSW 3.2 km/h 3.2 km/h 41% 0.0 mm 633 W/m2
14:39 25 °C 10.8 °C 1013.5 hPa NE 3.2 km/h 6.4 km/h 41% 0.0 mm 629 W/m2
14:44 25.2 °C 10.3 °C 1013.5 hPa Calm   1.6 km/h 39% 0.0 mm 624 W/m2
14:49 25.2 °C 11 °C 1013.2 hPa South 1.4 km/h 3.2 km/h 41% 0.0 mm 619 W/m2
14:54 25.2 °C 10.6 °C 1013.2 hPa South 1.4 km/h 1.6 km/h 40% 0.0 mm 615 W/m2
14:59 25.3 °C 10.3 °C 1013.2 hPa NE 3.2 km/h 3.2 km/h 39% 0.0 mm 612 W/m2
15:04 25.3 °C 10.7 °C 1013.2 hPa ESE 1.4 km/h 4.8 km/h 40% 0.0 mm 603 W/m2
15:09 25.4 °C 10.4 °C 1013.2 hPa NW 3.2 km/h 4.8 km/h 39% 0.0 mm 596 W/m2
15:14 25.5 °C 10.9 °C 1013.2 hPa SE 3.2 km/h 4.8 km/h 40% 0.0 mm 591 W/m2
15:19 25.7 °C 10.3 °C 1013.2 hPa SE 4.7 km/h 4.8 km/h 38% 0.0 mm 584 W/m2
15:24 25.6 °C 10.6 °C 1013.2 hPa WNW 3.2 km/h 4.8 km/h 39% 0.0 mm 577 W/m2
15:29 25.4 °C 10 °C 1013.2 hPa WNW 1.4 km/h 3.2 km/h 38% 0.0 mm 573 W/m2
15:34 25.6 °C 10.6 °C 1013.2 hPa WNW 1.4 km/h 3.2 km/h 39% 0.0 mm 564 W/m2
15:39 25.8 °C 10 °C 1012.9 hPa NE 3.2 km/h 6.4 km/h 37% 0.0 mm 554 W/m2
15:44 26 °C 10.2 °C 1012.9 hPa Calm   6.4 km/h 37% 0.0 mm 548 W/m2
15:49 26.2 °C 9.5 °C 1012.9 hPa Calm   6.4 km/h 35% 0.0 mm 540 W/m2
15:54 26.2 °C 10.4 °C 1012.9 hPa East 1.4 km/h 3.2 km/h 37% 0.0 mm 533 W/m2
15:59 26.2 °C 9.9 °C 1012.9 hPa Calm   3.2 km/h 36% 0.0 mm 526 W/m2
16:04 26.2 °C 10.4 °C 1012.9 hPa Calm   3.2 km/h 37% 0.0 mm 515 W/m2
16:09 26.2 °C 9.5 °C 1012.9 hPa NW 3.2 km/h 9.7 km/h 35% 0.0 mm 504 W/m2
16:14 26.2 °C 9.5 °C 1012.9 hPa South 1.4 km/h 6.4 km/h 35% 0.0 mm 499 W/m2
16:19 26.2 °C 9.9 °C 1012.9 hPa WSW 3.2 km/h 3.2 km/h 36% 0.0 mm 492 W/m2
16:24 26.3 °C 10 °C 1012.9 hPa West 3.2 km/h 6.4 km/h 36% 0.0 mm 480 W/m2
16:29 26.3 °C 9.6 °C 1012.9 hPa NW 3.2 km/h 6.4 km/h 35% 0.0 mm 468 W/m2
16:34 26.3 °C 9.6 °C 1012.9 hPa WNW 1.4 km/h 4.8 km/h 35% 0.0 mm 455 W/m2
16:39 26.5 °C 10.2 °C 1012.9 hPa ENE 6.4 km/h 6.4 km/h 36% 0.0 mm 445 W/m2
16:44 26.6 °C 9 °C 1012.9 hPa WSW 3.2 km/h 9.7 km/h 33% 0.0 mm 434 W/m2
16:49 26.4 °C 9.7 °C 1012.9 hPa Calm   3.2 km/h 35% 0.0 mm 422 W/m2
16:54 26.5 °C 9.4 °C 1012.5 hPa NW 3.2 km/h 4.8 km/h 34% 0.0 mm 413 W/m2
16:59 26.5 °C 9.4 °C 1012.5 hPa East 1.4 km/h 4.8 km/h 34% 0.0 mm 364 W/m2
17:04 26.6 °C 9.4 °C 1012.5 hPa Calm   1.6 km/h 34% 0.0 mm 357 W/m2
17:09 26.9 °C 10.1 °C 1012.5 hPa Calm     35% 0.0 mm 374 W/m2
17:14 26.8 °C 10.1 °C 1012.5 hPa NE 4.7 km/h 9.7 km/h 35% 0.0 mm 362 W/m2
17:19 26.7 °C 10 °C 1012.5 hPa SE 1.4 km/h 3.2 km/h 35% 0.0 mm 346 W/m2
17:24 26.6 °C 9.4 °C 1012.5 hPa SE 1.4 km/h 6.4 km/h 34% 0.0 mm 334 W/m2
17:29 26.3 °C 9.6 °C 1012.5 hPa East 3.2 km/h 4.8 km/h 35% 0.0 mm 318 W/m2
17:34 26.3 °C 10.4 °C 1012.5 hPa South 3.2 km/h 6.4 km/h 37% 0.0 mm 306 W/m2
17:39 26.3 °C 10 °C 1012.5 hPa Calm   1.6 km/h 36% 0.0 mm 292 W/m2
17:44 26.4 °C 10.5 °C 1012.5 hPa Calm   3.2 km/h 37% 0.0 mm 276 W/m2
17:49 26.4 °C 10.1 °C 1012.5 hPa SSE 1.4 km/h 3.2 km/h 36% 0.0 mm 262 W/m2
17:54 26.2 °C 10.8 °C 1012.2 hPa Calm   1.6 km/h 38% 0.0 mm 246 W/m2
17:59 25.9 °C 10.5 °C 1012.2 hPa Calm   3.2 km/h 38% 0.0 mm 230 W/m2
18:04 25.7 °C 10.3 °C 1012.2 hPa East 1.4 km/h 1.6 km/h 38% 0.0 mm 54 W/m2
18:09 25.4 °C 10 °C 1012.2 hPa SW 1.4 km/h 3.2 km/h 38% 0.0 mm 200 W/m2
18:14 25.3 °C 10 °C 1012.2 hPa SSW 1.4 km/h 3.2 km/h 38% 0.0 mm 186 W/m2
18:19 25.1 °C 10.9 °C 1012.2 hPa Calm   1.6 km/h 41% 0.0 mm 172 W/m2
18:24 25.2 °C 11 °C 1012.2 hPa SSW 1.4 km/h 1.6 km/h 41% 0.0 mm 158 W/m2
18:29 25.1 °C 10.6 °C 1012.2 hPa SSW 1.4 km/h 1.6 km/h 40% 0.0 mm 121 W/m2
18:34 24.8 °C 10.7 °C 1012.2 hPa SSW 1.4 km/h 3.2 km/h 41% 0.0 mm 86 W/m2
18:39 24.4 °C 10.7 °C 1012.2 hPa SSW 1.4 km/h 3.2 km/h 42% 0.0 mm 33 W/m2
18:44 24.1 °C 10.7 °C 1012.2 hPa SSW 1.4 km/h 3.2 km/h 43% 0.0 mm 30 W/m2
18:49 23.8 °C 10.8 °C 1012.2 hPa SSW 1.4 km/h 3.2 km/h 44% 0.0 mm 26 W/m2
18:54 23.3 °C 10.7 °C 1012.2 hPa SSW 1.4 km/h 3.2 km/h 45% 0.0 mm 25 W/m2
18:59 22.9 °C 10.3 °C 1012.2 hPa SSW 3.2 km/h 3.2 km/h 45% 0.0 mm 23 W/m2
19:04 22.6 °C 10.4 °C 1012.2 hPa SSW 3.2 km/h 3.2 km/h 46% 0.0 mm 21 W/m2
19:09 22.2 °C 10 °C 1012.2 hPa SSW 1.4 km/h 3.2 km/h 46% 0.0 mm 19 W/m2
19:14 21.9 °C 10.1 °C 1012.2 hPa SSW 3.2 km/h 3.2 km/h 47% 0.0 mm 16 W/m2
19:19 21.6 °C 10.1 °C 1012.2 hPa Calm   3.2 km/h 48% 0.0 mm 12 W/m2
19:24 21.3 °C 10.2 °C 1012.2 hPa SSW 1.4 km/h 3.2 km/h 49% 0.0 mm 11 W/m2
19:29 20.9 °C 9.8 °C 1012.2 hPa SSW 3.2 km/h 3.2 km/h 49% 0.0 mm 7 W/m2
19:34 20.8 °C 10 °C 1012.2 hPa Calm     50% 0.0 mm 5 W/m2
19:39 20.6 °C 10.1 °C 1012.2 hPa Calm   3.2 km/h 51% 0.0 mm 0 W/m2
19:44 20.3 °C 9.8 °C 1012.2 hPa Calm     51% 0.0 mm 0 W/m2
19:49 20.2 °C 9.7 °C 1012.2 hPa Calm   1.6 km/h 51% 0.0 mm 0 W/m2
19:54 19.9 °C 9.8 °C 1012.2 hPa Calm     52% 0.0 mm 0 W/m2
19:59 19.7 °C 9.6 °C 1012.2 hPa Calm   1.6 km/h 52% 0.0 mm 0 W/m2
20:04 19.5 °C 9.7 °C 1012.2 hPa Calm     53% 0.0 mm 0 W/m2
20:09 19.3 °C 9.5 °C 1012.2 hPa Calm   1.6 km/h 53% 0.0 mm 0 W/m2
20:14 19.2 °C 9.7 °C 1012.2 hPa Calm     54% 0.0 mm 0 W/m2
20:19 19.1 °C 9.6 °C 1012.2 hPa Calm   1.6 km/h 54% 0.0 mm 0 W/m2
20:24 18.9 °C 9.7 °C 1012.2 hPa Calm     55% 0.0 mm 0 W/m2
20:29 18.7 °C 9.7 °C 1012.2 hPa Calm     56% 0.0 mm 0 W/m2
20:34 18.5 °C 9.6 °C 1012.2 hPa Calm     56% 0.0 mm 0 W/m2
20:39 18.3 °C 9.6 °C 1012.2 hPa Calm     57% 0.0 mm 0 W/m2
20:44 18.1 °C 9.7 °C 1012.5 hPa Calm     58% 0.0 mm 0 W/m2
20:49 17.9 °C 9.5 °C 1012.5 hPa Calm     58% 0.0 mm 0 W/m2
20:54 17.7 °C 9.6 °C 1012.2 hPa Calm     59% 0.0 mm 0 W/m2
20:59 17.5 °C 9.6 °C 1012.5 hPa Calm     60% 0.0 mm 0 W/m2
21:05 17.3 °C 9.5 °C 1012.5 hPa Calm     60% 0.0 mm 0 W/m2
21:10 17.2 °C 9.4 °C 1012.5 hPa Calm     60% 0.0 mm 0 W/m2
21:15 17.1 °C 9.5 °C 1012.5 hPa Calm     61% 0.0 mm 0 W/m2
21:20 16.9 °C 9.6 °C 1012.5 hPa Calm     62% 0.0 mm 0 W/m2
21:25 16.8 °C 9.5 °C 1012.5 hPa Calm     62% 0.0 mm 0 W/m2
21:30 16.7 °C 9.4 °C 1012.5 hPa Calm     62% 0.0 mm 0 W/m2
21:35 16.6 °C 9.5 °C 1012.5 hPa Calm     63% 0.0 mm 0 W/m2
21:40 16.4 °C 9.3 °C 1012.5 hPa Calm     63% 0.0 mm 0 W/m2
21:45 16.3 °C 9.5 °C 1012.5 hPa Calm     64% 0.0 mm 0 W/m2
21:50 16.2 °C 9.4 °C 1012.5 hPa Calm     64% 0.0 mm 0 W/m2
21:55 16.1 °C 9.3 °C 1012.5 hPa Calm     64% 0.0 mm 0 W/m2
22:00 16 °C 9.2 °C 1012.5 hPa Calm     64% 0.0 mm 0 W/m2
22:05 15.9 °C 9.3 °C 1012.5 hPa Calm     65% 0.0 mm 0 W/m2
22:10 15.8 °C 9.2 °C 1012.5 hPa SSW 1.4 km/h 1.6 km/h 65% 0.0 mm 0 W/m2
22:15 15.7 °C 9.4 °C 1012.5 hPa Calm     66% 0.0 mm 0 W/m2
22:20 15.7 °C 9.1 °C 1012.5 hPa Calm     65% 0.0 mm 0 W/m2
22:25 15.6 °C 9.3 °C 1012.5 hPa Calm     66% 0.0 mm 0 W/m2
22:30 15.5 °C 9.2 °C 1012.5 hPa Calm     66% 0.0 mm 0 W/m2
22:35 15.4 °C 9.3 °C 1012.5 hPa Calm     67% 0.0 mm 0 W/m2
22:40 15.3 °C 9.2 °C 1012.5 hPa Calm     67% 0.0 mm 0 W/m2
22:45 15.3 °C 9.2 °C 1012.5 hPa Calm     67% 0.0 mm 0 W/m2
22:50 15.2 °C 9.1 °C 1012.5 hPa Calm     67% 0.0 mm 0 W/m2
22:55 15.1 °C 9 °C 1012.5 hPa Calm     67% 0.0 mm 0 W/m2
23:00 15.1 °C 9.2 °C 1012.5 hPa Calm     68% 0.0 mm 0 W/m2
23:05 14.9 °C 9 °C 1012.5 hPa Calm     68% 0.0 mm 0 W/m2
23:10 14.8 °C 9 °C 1012.5 hPa Calm     68% 0.0 mm 0 W/m2
23:15 14.6 °C 9 °C 1012.5 hPa Calm     69% 0.0 mm 0 W/m2
23:20 14.5 °C 9.1 °C 1012.5 hPa Calm     70% 0.0 mm 0 W/m2
23:25 14.4 °C 9 °C 1012.5 hPa Calm     70% 0.0 mm 0 W/m2
23:30 14.3 °C 9.1 °C 1012.5 hPa Calm     71% 0.0 mm 0 W/m2
23:35 14.2 °C 9 °C 1012.5 hPa Calm     71% 0.0 mm 0 W/m2
Juneau County Weather
Compliments of Weather Underground - 4 mb